User: anonymous   Login
Location: Unspecified
(0.0000°N, 0.0000°E)
Time: 08:37:48
(UTC+00:00)
Language:

Explorer 26 - Orbit

View from above orbital plane
View from above orbital plane
View from above satellite
View from above satellite

Ground track
Ground track

The orbit data is extracted from the following two-line orbital elements,

1   963U 64086A   18019.94437004 +.00047997 -11905-4 +50550-3 0  9997
2   963 019.7263 324.4908 1091901 288.4886 060.0034 13.52124755071335
Epoch (UTC): 19 January 2018 22:39:53
Eccentricity: 0.1091901
inclination: 19.7263°
perigee height: 252 km
apogee height: 1877 km
right ascension of ascending node: 324.4908°
argument of perigee: 288.4886°
revolutions per day: 13.52124755
mean anomaly at epoch: 60.0034°
orbit number at epoch: 7133

The dashed part of the orbit path shows where the satellite is in the earth's shadow,  

DLR